EZS42JW EGKK-LSGG

Flight info

Callsign EZS42JW
Flight time 1h 21m
Altitude 35000
Route BOGNA1X BOGNA L612 BENBO L612 HAWKE UL612 RESMI UM975 PEKIM DCT PILUL DCT PIMUP/N0359F270 DCT PIXIS/N0365F270 DCT PIBAT/N0345F230 DCT LUSAR
Aircraft A320/M-SDE2E3FGHIJ1RWXYZ/LB1

Departure

Time 2026-04-14 13:48
Airport London Gatwick Airport (EGKK)

Arrival

Time 2026-04-14 15:10
Airport Geneva International Airport (LSGG)
Time Latitude Longitude Altitude Speed Heading
2026-04-14 13:01 51.15378 -0.18890 204 ft 0 kts 258°
2026-04-14 13:36 51.15378 -0.18888 204 ft 2 kts 258°
2026-04-14 13:36 51.15384 -0.18848 204 ft 4 kts 258°
2026-04-14 13:36 51.15389 -0.18807 216 ft 4 kts 251°
2026-04-14 13:36 51.15401 -0.18779 204 ft 4 kts 186°
2026-04-14 13:37 51.15421 -0.18782 215 ft 4 kts 167°
2026-04-14 13:37 51.15429 -0.18785 204 ft 0 kts 167°
2026-04-14 13:39 51.15425 -0.18783 204 ft 3 kts 167°
2026-04-14 13:39 51.15393 -0.18772 204 ft 6 kts 167°
2026-04-14 13:39 51.15342 -0.18755 212 ft 9 kts 167°
2026-04-14 13:40 51.15274 -0.18731 214 ft 11 kts 167°
2026-04-14 13:40 51.15189 -0.18701 213 ft 13 kts 168°
2026-04-14 13:40 51.15148 -0.18605 209 ft 13 kts 81°
2026-04-14 13:40 51.15167 -0.18464 206 ft 12 kts 77°
2026-04-14 13:41 51.15184 -0.18333 211 ft 13 kts 82°
2026-04-14 13:41 51.15200 -0.18176 204 ft 15 kts 78°
2026-04-14 13:41 51.15223 -0.18012 211 ft 15 kts 77°
2026-04-14 13:41 51.15246 -0.17842 214 ft 16 kts 78°
2026-04-14 13:42 51.15271 -0.17660 204 ft 18 kts 78°
2026-04-14 13:42 51.15295 -0.17477 208 ft 14 kts 79°
2026-04-14 13:42 51.15281 -0.17355 215 ft 11 kts 143°
2026-04-14 13:42 51.15211 -0.17276 211 ft 12 kts 144°
2026-04-14 13:43 51.15182 -0.17183 204 ft 11 kts 82°
2026-04-14 13:43 51.15198 -0.17065 204 ft 10 kts 78°
2026-04-14 13:43 51.15213 -0.16959 204 ft 9 kts 77°
2026-04-14 13:43 51.15217 -0.16926 204 ft 0 kts 78°
2026-04-14 13:44 51.15218 -0.16921 213 ft 3 kts 78°
2026-04-14 13:45 51.15221 -0.16890 204 ft 2 kts 84°
2026-04-14 13:45 51.15222 -0.16885 204 ft 0 kts 85°
2026-04-14 13:46 51.15222 -0.16876 213 ft 4 kts 85°
2026-04-14 13:46 51.15195 -0.16798 210 ft 12 kts 149°
2026-04-14 13:47 51.15129 -0.16786 211 ft 7 kts 207°
2026-04-14 13:47 51.15119 -0.16825 202 ft 0 kts 257°
2026-04-14 13:47 51.15104 -0.16932 203 ft 39 kts 257°
2026-04-14 13:48 51.14984 -0.17797 215 ft 116 kts 257°
2026-04-14 13:48 51.14759 -0.19346 376 ft 156 kts 249°
2026-04-14 13:48 51.14520 -0.21025 1259 ft 156 kts 250°
2026-04-14 13:48 51.14270 -0.22790 1898 ft 174 kts 250°
2026-04-14 13:49 51.13984 -0.24789 2390 ft 198 kts 251°
2026-04-14 13:49 51.13664 -0.27039 3132 ft 218 kts 251°
2026-04-14 13:49 51.12957 -0.29245 3763 ft 234 kts 223°
2026-04-14 13:49 51.11538 -0.30551 4701 ft 242 kts 193°
2026-04-14 13:50 51.09840 -0.30802 5526 ft 249 kts 183°
2026-04-14 13:50 51.08095 -0.30788 5958 ft 251 kts 181°
2026-04-14 13:50 51.06338 -0.30718 6239 ft 254 kts 181°
2026-04-14 13:50 51.04567 -0.30644 6503 ft 256 kts 181°
2026-04-14 13:51 51.02782 -0.30560 6750 ft 256 kts 181°
2026-04-14 13:51 51.00976 -0.30459 7549 ft 260 kts 181°
2026-04-14 13:51 50.99163 -0.30364 8664 ft 263 kts 181°
2026-04-14 13:51 50.97314 -0.30294 9690 ft 269 kts 181°
2026-04-14 13:52 50.95418 -0.30246 10524 ft 280 kts 181°
2026-04-14 13:52 50.93387 -0.30194 11015 ft 301 kts 181°
2026-04-14 13:52 50.91258 -0.30140 11833 ft 310 kts 181°
2026-04-14 13:52 50.89079 -0.30058 12746 ft 316 kts 181°
2026-04-14 13:53 50.86861 -0.29944 13633 ft 323 kts 181°
2026-04-14 13:53 50.84591 -0.29811 14420 ft 330 kts 181°
2026-04-14 13:53 50.82278 -0.29661 15192 ft 336 kts 181°
2026-04-14 13:53 50.79922 -0.29524 15958 ft 341 kts 181°
2026-04-14 13:54 50.77535 -0.29390 16727 ft 346 kts 181°
2026-04-14 13:54 50.75122 -0.28857 17455 ft 357 kts 165°
2026-04-14 13:54 50.72880 -0.27092 18184 ft 366 kts 150°
2026-04-14 13:54 50.70724 -0.24880 18858 ft 372 kts 149°
2026-04-14 13:55 50.68554 -0.22621 19501 ft 377 kts 148°
2026-04-14 13:55 50.66347 -0.20319 20132 ft 383 kts 149°
2026-04-14 13:55 50.64107 -0.17990 20727 ft 389 kts 148°
2026-04-14 13:55 50.61829 -0.15634 21319 ft 395 kts 149°
2026-04-14 13:56 50.59505 -0.13249 21905 ft 401 kts 149°
2026-04-14 13:56 50.57147 -0.10837 22495 ft 408 kts 149°
2026-04-14 13:56 50.54754 -0.08391 23078 ft 414 kts 149°
2026-04-14 13:56 50.52322 -0.05907 23654 ft 420 kts 149°
2026-04-14 13:57 50.49854 -0.03386 24143 ft 426 kts 149°
2026-04-14 13:57 50.47358 -0.00833 24656 ft 431 kts 149°
2026-04-14 13:57 50.44829 0.01748 25129 ft 436 kts 148°
2026-04-14 13:57 50.42268 0.04367 25573 ft 442 kts 148°
2026-04-14 13:58 50.39678 0.07011 26056 ft 446 kts 148°
2026-04-14 13:58 50.37066 0.09671 26543 ft 450 kts 148°
2026-04-14 13:58 50.34430 0.12354 27038 ft 453 kts 148°
2026-04-14 13:58 50.31774 0.15050 27488 ft 456 kts 148°
2026-04-14 13:59 50.29091 0.17757 27921 ft 461 kts 148°
2026-04-14 13:59 50.26382 0.20491 28366 ft 465 kts 148°
2026-04-14 13:59 50.23650 0.23238 28818 ft 470 kts 148°
2026-04-14 13:59 50.20926 0.25971 29281 ft 473 kts 148°
2026-04-14 14:00 50.18149 0.28769 29690 ft 477 kts 147°
2026-04-14 14:00 50.15362 0.31621 30109 ft 481 kts 146°
2026-04-14 14:00 50.12560 0.34517 30486 ft 486 kts 146°
2026-04-14 14:00 50.09738 0.37439 30863 ft 489 kts 146°
2026-04-14 14:01 50.06889 0.40379 31237 ft 492 kts 147°
2026-04-14 14:01 50.04022 0.43324 31617 ft 495 kts 147°
2026-04-14 14:01 50.01140 0.46267 32141 ft 495 kts 147°
2026-04-14 14:01 49.98264 0.49194 32650 ft 494 kts 147°
2026-04-14 14:02 49.95387 0.52118 33125 ft 495 kts 147°
2026-04-14 14:02 49.92508 0.55044 33629 ft 495 kts 147°
2026-04-14 14:02 49.89628 0.57969 34122 ft 495 kts 147°
2026-04-14 14:02 49.86743 0.60901 34541 ft 495 kts 146°
2026-04-14 14:03 49.83989 0.64099 34950 ft 495 kts 140°
2026-04-14 14:03 49.81312 0.67492 35115 ft 499 kts 140°
2026-04-14 14:03 49.78649 0.70861 35152 ft 490 kts 140°
2026-04-14 14:04 49.73406 0.77444 35143 ft 482 kts 140°
2026-04-14 14:04 49.68200 0.83961 35153 ft 482 kts 140°
2026-04-14 14:05 49.62990 0.90476 35190 ft 482 kts 139°
2026-04-14 14:05 49.58662 0.95860 35168 ft 481 kts 139°
2026-04-14 14:06 49.53447 1.02328 35179 ft 481 kts 139°
2026-04-14 14:06 49.48239 1.08787 35176 ft 481 kts 139°
2026-04-14 14:07 49.43023 1.15239 35180 ft 481 kts 139°
2026-04-14 14:07 49.37804 1.21666 35186 ft 481 kts 139°
2026-04-14 14:08 49.32584 1.28088 35184 ft 481 kts 139°
2026-04-14 14:08 49.27363 1.34490 35211 ft 481 kts 138°
2026-04-14 14:09 49.22130 1.40878 35195 ft 481 kts 138°
2026-04-14 14:09 49.16889 1.47242 35192 ft 481 kts 139°
2026-04-14 14:10 49.11657 1.53600 35187 ft 481 kts 138°
2026-04-14 14:10 49.06427 1.59967 35178 ft 481 kts 138°
2026-04-14 14:11 49.01191 1.66306 35182 ft 481 kts 138°
2026-04-14 14:11 48.95947 1.72630 35187 ft 481 kts 138°
2026-04-14 14:12 48.90705 1.78926 35216 ft 480 kts 138°
2026-04-14 14:12 48.85461 1.85207 35211 ft 480 kts 138°
2026-04-14 14:13 48.80212 1.91486 35197 ft 480 kts 138°
2026-04-14 14:13 48.74962 1.97757 35197 ft 480 kts 138°
2026-04-14 14:14 48.69740 2.03958 35193 ft 480 kts 138°
2026-04-14 14:14 48.64478 2.10181 35192 ft 480 kts 138°
2026-04-14 14:15 48.59225 2.16404 35185 ft 479 kts 136°
2026-04-14 14:15 48.54784 2.23702 35211 ft 467 kts 118°
2026-04-14 14:16 48.51115 2.31766 35209 ft 466 kts 118°
2026-04-14 14:16 48.47420 2.39807 35207 ft 466 kts 118°
2026-04-14 14:17 48.41862 2.51830 35207 ft 466 kts 118°
2026-04-14 14:17 48.38160 2.59829 35231 ft 466 kts 119°
2026-04-14 14:18 48.34456 2.67811 35227 ft 465 kts 119°
2026-04-14 14:18 48.30757 2.75760 35229 ft 464 kts 119°
2026-04-14 14:19 48.26717 2.83334 35224 ft 471 kts 132°
2026-04-14 14:19 48.21573 2.89502 35216 ft 474 kts 139°
2026-04-14 14:20 48.16355 2.95547 35202 ft 474 kts 138°
2026-04-14 14:20 48.11143 3.01578 35232 ft 473 kts 139°
2026-04-14 14:21 48.05494 3.06626 35229 ft 476 kts 156°
2026-04-14 14:21 47.99387 3.10443 35226 ft 476 kts 156°
2026-04-14 14:22 47.93284 3.14278 35217 ft 475 kts 155°
2026-04-14 14:22 47.87192 3.18103 35208 ft 475 kts 155°
2026-04-14 14:23 47.81105 3.21916 35200 ft 474 kts 155°
2026-04-14 14:23 47.75015 3.25727 35191 ft 475 kts 155°
2026-04-14 14:24 47.68926 3.29531 35192 ft 475 kts 155°
2026-04-14 14:24 47.62829 3.33316 35193 ft 476 kts 155°
2026-04-14 14:25 47.56720 3.37088 35229 ft 475 kts 156°
2026-04-14 14:25 47.50666 3.40823 35220 ft 474 kts 155°
2026-04-14 14:26 47.44595 3.44581 35213 ft 473 kts 155°
2026-04-14 14:26 47.38517 3.48316 35214 ft 473 kts 156°
2026-04-14 14:27 47.32447 3.52029 35201 ft 472 kts 155°
2026-04-14 14:27 47.26379 3.55736 35193 ft 472 kts 155°
2026-04-14 14:28 47.20304 3.59436 35191 ft 472 kts 155°
2026-04-14 14:28 47.14238 3.63141 35184 ft 472 kts 155°
2026-04-14 14:29 47.08171 3.66835 35184 ft 472 kts 155°
2026-04-14 14:29 47.02101 3.70498 35185 ft 472 kts 155°
2026-04-14 14:30 46.96538 3.75392 35183 ft 463 kts 134°
2026-04-14 14:30 46.92462 3.82458 35178 ft 448 kts 114°
2026-04-14 14:31 46.90001 3.90665 35171 ft 439 kts 103°
2026-04-14 14:31 46.87805 3.99003 35176 ft 440 kts 104°
2026-04-14 14:32 46.85575 4.07324 35196 ft 440 kts 104°
2026-04-14 14:32 46.83337 4.15641 35192 ft 440 kts 104°
2026-04-14 14:33 46.81113 4.23959 35194 ft 439 kts 103°
2026-04-14 14:33 46.79635 4.32454 35189 ft 430 kts 94°
2026-04-14 14:34 46.77793 4.45200 35173 ft 430 kts 94°
2026-04-14 14:35 46.76539 4.53783 34968 ft 438 kts 95°
2026-04-14 14:35 46.75903 4.58121 34725 ft 438 kts 95°
2026-04-14 14:35 46.75260 4.62450 34494 ft 436 kts 95°
2026-04-14 14:35 46.74616 4.66769 34256 ft 434 kts 95°
2026-04-14 14:36 46.73975 4.71050 33748 ft 431 kts 94°
2026-04-14 14:36 46.73337 4.75300 33202 ft 428 kts 95°
2026-04-14 14:36 46.72703 4.79512 32679 ft 424 kts 95°
2026-04-14 14:36 46.72075 4.83696 32157 ft 420 kts 95°
2026-04-14 14:37 46.71454 4.87841 31675 ft 418 kts 95°
2026-04-14 14:37 46.70835 4.91960 31141 ft 415 kts 95°
2026-04-14 14:37 46.70218 4.96055 30647 ft 412 kts 95°
2026-04-14 14:37 46.69605 5.00107 30140 ft 408 kts 96°
2026-04-14 14:38 46.68996 5.04118 29646 ft 403 kts 96°
2026-04-14 14:38 46.68390 5.08072 29195 ft 397 kts 96°
2026-04-14 14:38 46.67790 5.11976 28748 ft 392 kts 96°
2026-04-14 14:38 46.67199 5.15818 28311 ft 387 kts 96°
2026-04-14 14:39 46.66619 5.19613 27879 ft 381 kts 96°
2026-04-14 14:39 46.66053 5.23358 27456 ft 377 kts 96°
2026-04-14 14:39 46.65469 5.27065 27020 ft 376 kts 101°
2026-04-14 14:39 46.64363 5.30531 26438 ft 384 kts 120°
2026-04-14 14:40 46.62494 5.33403 25470 ft 402 kts 142°
2026-04-14 14:40 46.60005 5.35375 24448 ft 415 kts 153°
2026-04-14 14:40 46.57352 5.37181 23250 ft 427 kts 154°
2026-04-14 14:40 46.54622 5.39023 21900 ft 439 kts 154°
2026-04-14 14:41 46.51821 5.40914 20647 ft 448 kts 154°
2026-04-14 14:41 46.49000 5.42834 19779 ft 447 kts 153°
2026-04-14 14:41 46.46195 5.44752 19045 ft 444 kts 153°
2026-04-14 14:41 46.43424 5.46649 18337 ft 438 kts 153°
2026-04-14 14:42 46.40677 5.48532 17566 ft 434 kts 153°
2026-04-14 14:42 46.37968 5.50386 16887 ft 428 kts 154°
2026-04-14 14:42 46.35297 5.52215 16215 ft 422 kts 154°
2026-04-14 14:42 46.32661 5.54016 15561 ft 417 kts 154°
2026-04-14 14:43 46.30053 5.55793 14973 ft 408 kts 154°
2026-04-14 14:43 46.27586 5.57468 14731 ft 376 kts 154°
2026-04-14 14:43 46.25303 5.59016 14533 ft 348 kts 154°
2026-04-14 14:43 46.23192 5.60446 14412 ft 323 kts 155°
2026-04-14 14:44 46.21230 5.61780 14296 ft 301 kts 154°
2026-04-14 14:44 46.19400 5.63027 14166 ft 282 kts 154°
2026-04-14 14:44 46.17653 5.64215 13809 ft 274 kts 154°
2026-04-14 14:44 46.15939 5.65375 13310 ft 271 kts 154°
2026-04-14 14:45 46.14238 5.66524 12812 ft 269 kts 154°
2026-04-14 14:45 46.12536 5.67672 12133 ft 273 kts 154°
2026-04-14 14:45 46.10805 5.68839 11448 ft 276 kts 154°
2026-04-14 14:45 46.09171 5.70264 10773 ft 275 kts 139°
2026-04-14 14:46 46.07808 5.72134 10147 ft 274 kts 134°
2026-04-14 14:46 46.06461 5.74039 9552 ft 270 kts 134°
2026-04-14 14:46 46.05128 5.75918 8948 ft 267 kts 133°
2026-04-14 14:46 46.03972 5.77942 8333 ft 257 kts 111°
2026-04-14 14:47 46.03699 5.80398 7652 ft 248 kts 77°
2026-04-14 14:47 46.04400 5.82592 6980 ft 242 kts 48°
2026-04-14 14:47 46.05568 5.84329 6330 ft 240 kts 44°
2026-04-14 14:47 46.06726 5.85975 5975 ft 227 kts 44°
2026-04-14 14:48 46.07808 5.87541 5674 ft 213 kts 44°
2026-04-14 14:48 46.08827 5.89024 5398 ft 204 kts 44°
2026-04-14 14:48 46.09804 5.90444 5123 ft 195 kts 43°
2026-04-14 14:48 46.10736 5.91799 4904 ft 187 kts 43°
2026-04-14 14:49 46.11640 5.93116 4627 ft 182 kts 43°
2026-04-14 14:49 46.12515 5.94391 4369 ft 177 kts 43°
2026-04-14 14:49 46.13372 5.95639 4137 ft 173 kts 43°
2026-04-14 14:49 46.14220 5.96875 3909 ft 172 kts 42°
2026-04-14 14:50 46.15058 5.98096 3674 ft 171 kts 44°
2026-04-14 14:50 46.15875 5.99291 3459 ft 162 kts 44°
2026-04-14 14:50 46.16633 6.00397 3250 ft 148 kts 43°
2026-04-14 14:50 46.17310 6.01388 3071 ft 132 kts 44°
2026-04-14 14:51 46.17938 6.02304 2887 ft 127 kts 44°
2026-04-14 14:51 46.18550 6.03198 2696 ft 124 kts 44°
2026-04-14 14:51 46.19158 6.04087 2512 ft 125 kts 44°
2026-04-14 14:51 46.19764 6.04972 2337 ft 125 kts 45°
2026-04-14 14:52 46.20168 6.05562 2207 ft 123 kts 45°
2026-04-14 14:52 46.20769 6.06443 2010 ft 122 kts 47°
2026-04-14 14:52 46.21374 6.07327 1860 ft 122 kts 47°
2026-04-14 14:52 46.21975 6.08210 1693 ft 124 kts 48°
2026-04-14 14:53 46.22571 6.09083 1530 ft 121 kts 47°
2026-04-14 14:53 46.23147 6.09928 1416 ft 110 kts 48°
2026-04-14 14:53 46.23811 6.10922 1649 ft 112 kts 48°
2026-04-14 14:53 46.24211 6.11510 2166 ft 131 kts 49°
2026-04-14 14:54 46.24883 6.12511 2926 ft 149 kts 46°
2026-04-14 14:54 46.25658 6.13659 3412 ft 172 kts 45°
2026-04-14 14:54 46.26561 6.14970 3931 ft 197 kts 44°
2026-04-14 14:54 46.27592 6.16468 4569 ft 223 kts 44°
2026-04-14 14:55 46.28741 6.18147 5338 ft 243 kts 44°
2026-04-14 14:55 46.29950 6.19919 6352 ft 252 kts 44°
2026-04-14 14:55 46.31149 6.21788 6788 ft 255 kts 54°
2026-04-14 14:55 46.31782 6.24204 6958 ft 264 kts 82°
2026-04-14 14:56 46.30460 6.29063 7008 ft 277 kts 135°
2026-04-14 14:56 46.28790 6.30465 7011 ft 283 kts 161°
2026-04-14 14:56 46.26823 6.30701 7005 ft 288 kts 186°
2026-04-14 14:57 46.24922 6.29758 7011 ft 292 kts 211°
2026-04-14 14:57 46.23366 6.27884 7011 ft 292 kts 224°
2026-04-14 14:57 46.21899 6.25873 7012 ft 289 kts 224°
2026-04-14 14:57 46.20435 6.23867 7013 ft 291 kts 224°
2026-04-14 14:58 46.18964 6.21855 7012 ft 293 kts 225°
2026-04-14 14:58 46.17481 6.19828 7010 ft 293 kts 224°
2026-04-14 14:58 46.16005 6.17813 7008 ft 293 kts 224°
2026-04-14 14:58 46.14526 6.15801 7013 ft 293 kts 224°
2026-04-14 14:59 46.13046 6.13794 7010 ft 292 kts 224°
2026-04-14 14:59 46.11566 6.11786 7006 ft 292 kts 224°
2026-04-14 14:59 46.10079 6.09768 7008 ft 294 kts 224°
2026-04-14 14:59 46.08597 6.07754 7008 ft 293 kts 224°
2026-04-14 15:00 46.07118 6.05752 6976 ft 290 kts 224°
2026-04-14 15:00 46.05645 6.03756 6984 ft 293 kts 224°
2026-04-14 15:00 46.04159 6.01748 6986 ft 294 kts 224°
2026-04-14 15:00 46.02681 5.99759 6981 ft 283 kts 224°
2026-04-14 15:01 46.01288 5.97886 6989 ft 266 kts 224°
2026-04-14 15:01 45.99964 5.96100 6986 ft 256 kts 224°
2026-04-14 15:01 45.98686 5.94355 6984 ft 252 kts 226°
2026-04-14 15:01 45.97715 5.92265 6979 ft 254 kts 250°
2026-04-14 15:02 45.97368 5.89844 6985 ft 251 kts 274°
2026-04-14 15:02 45.97668 5.87420 6987 ft 245 kts 296°
2026-04-14 15:02 45.98529 5.85361 6934 ft 238 kts 316°
2026-04-14 15:02 45.99775 5.83849 6917 ft 233 kts 334°
2026-04-14 15:03 46.01253 5.82983 6857 ft 229 kts 350°
2026-04-14 15:03 46.02822 5.82813 6719 ft 226 kts
2026-04-14 15:03 46.04340 5.83327 6519 ft 223 kts 24°
2026-04-14 15:03 46.05658 5.84459 6235 ft 219 kts 41°
2026-04-14 15:04 46.06736 5.85985 5973 ft 215 kts 45°
2026-04-14 15:04 46.07766 5.87483 5677 ft 204 kts 45°
2026-04-14 15:04 46.08739 5.88896 5428 ft 194 kts 44°
2026-04-14 15:04 46.09662 5.90239 5165 ft 183 kts 43°
2026-04-14 15:05 46.10535 5.91509 4963 ft 177 kts 44°
2026-04-14 15:05 46.11399 5.92765 4696 ft 175 kts 44°
2026-04-14 15:05 46.12250 5.94006 4452 ft 174 kts 43°
2026-04-14 15:05 46.13092 5.95233 4213 ft 171 kts 43°
2026-04-14 15:06 46.13937 5.96464 3987 ft 172 kts 43°
2026-04-14 15:06 46.14781 5.97694 3763 ft 173 kts 43°
2026-04-14 15:06 46.15592 5.98878 3534 ft 158 kts 44°
2026-04-14 15:06 46.16325 5.99948 3353 ft 140 kts 44°
2026-04-14 15:07 46.16978 6.00902 3160 ft 128 kts 43°
2026-04-14 15:07 46.17594 6.01801 2983 ft 125 kts 44°
2026-04-14 15:07 46.18200 6.02686 2803 ft 122 kts 43°
2026-04-14 15:07 46.18800 6.03562 2616 ft 123 kts 44°
2026-04-14 15:08 46.19395 6.04432 2437 ft 123 kts 45°
2026-04-14 15:08 46.19995 6.05313 2268 ft 122 kts 45°
2026-04-14 15:08 46.20600 6.06199 2062 ft 124 kts 47°
2026-04-14 15:08 46.21197 6.07074 1920 ft 120 kts 46°
2026-04-14 15:09 46.21784 6.07933 1746 ft 121 kts 49°
2026-04-14 15:09 46.22373 6.08794 1583 ft 121 kts 47°
2026-04-14 15:09 46.22969 6.09664 1428 ft 118 kts 49°
2026-04-14 15:09 46.23476 6.10413 1386 ft 84 kts 45°
2026-04-14 15:10 46.23768 6.10840 1381 ft 36 kts 45°
2026-04-14 15:10 46.23863 6.10996 1381 ft 13 kts 74°
2026-04-14 15:10 46.23790 6.11080 1378 ft 15 kts 168°
2026-04-14 15:10 46.23691 6.11057 1389 ft 16 kts 218°
2026-04-14 15:11 46.23621 6.10956 1387 ft 14 kts 226°
2026-04-14 15:11 46.23556 6.10861 1387 ft 14 kts 225°
2026-04-14 15:11 46.23482 6.10752 1389 ft 15 kts 225°
2026-04-14 15:11 46.23408 6.10649 1403 ft 16 kts 221°
2026-04-14 15:12 46.23330 6.10541 1398 ft 15 kts 225°
2026-04-14 15:12 46.23257 6.10434 1401 ft 14 kts 225°
2026-04-14 15:12 46.23190 6.10336 1396 ft 13 kts 225°
2026-04-14 15:12 46.23132 6.10268 1393 ft 9 kts 194°
2026-04-14 15:13 46.23071 6.10265 1393 ft 6 kts 181°
2026-04-14 15:13 46.23050 6.10265 1393 ft 0 kts 181°